Location: Newark
(45.4422°N, 16.2769°E)
Time: 13:27:49
(UTC+00:00)

Vanguard 2 - Pass Details

Date: 10 December 2019
Orbit: 553 x 2938 km, 32.9° (Epoch: 23 January)

Event Time Altitude Azimuth Distance (km) Brightness Sun altitude
Rises 23:41:37 0° 223° (SW) 5,677 - -65.0°
Reaches altitude 10° 23:45:20 10° 215° (SW) 4,956 - -64.6°
Maximum altitude 23:58:53 40° 154° (SSE) 3,731 - -63.3°
Exits shadow 00:07:10 27° 111° (ESE) 4,474 11.3 -62.3°
Drops below altitude 10° 00:14:30 10° 94° (E) 5,696 12.1 -61.4°
Sets 00:19:07 0° 87° (E) 6,579 12.6 -60.9°
